Location: Barcelona
(41.3830°N, 2.1830°E)
Time: 15:42:55

ISS - Pass Details

Date: 19 March 2018
Orbit: 403 x 406 km, 51.6° (Epoch: 17 March)

Event Time Altitude Azimuth Distance (km) Brightness Sun altitude
Exits shadow 05:48:38 25° 278° (W) 857 -2.7 -13.5°
Maximum altitude 05:50:06 43° 221° (SW) 582 -3.4 -13.3°
Drops below altitude 10° 05:53:12 10° 149° (SSE) 1,452 -0.8 -12.7°
Sets 05:55:19 0° 142° (SE) 2,307 0.4 -12.3°
